Starlink 3896

operational
NORAD ID: 52456 Int'l Des: 2022-049 Owner: SPXS Country: US Constellation: starlink
LEOCIRCULAR

关于 Starlink 3896

正在加载描述...

实时位置

正在加载3D地球...

即将过境

高度历史

Altitude vs Time

uPlot chart will show altitude changes over time

两行轨道根数

1 52456U 22049F 25308.17322637 .00000684 00000-0 61085-4 0 9990
2 52456 53.2169 272.5860 0001379 91.2717 268.8433 15.08840802193167
Epoch: Nov 4, 2025 • Age: 5 hours

当前状态

高度 544.6 km
速度 7.60 km/s
星下点 49.82°N, 155.03°W
发射日期 May 6, 2022
运行时间 3.4 years
类型 internet

技术详情

分类 Payload
质量 297.00 kg
干质量 220.00 kg
总质量 297.00 kg
长度 0.20 m
直径 2.80 m
跨度 9.00 m
形状 Box + pan
制造商 SPXS
平台类型 Starlink
阶段状态 In Orbit
所有者/国家 SPXS/US

大型星座

Loading constellations...